Weather History for Lahr, Germany

Change the Weather History Date:

Monday, January 21, 2013

  Actual Average (LFST) Record (LFST)
Temperature  
Mean Temperature 34 °F -  
Max Temperature 37 °F 40 °F 53 °F (2008)
Min Temperature 30 °F 30 °F 24 °F (2001)
Degree Days  
Heating Degree Days 32    
Moisture  
Dew Point 30 °F    
Average Humidity 86    
Maximum Humidity 100    
Minimum Humidity 69    
Precipitation  
Precipitation 0.00 in - - ()
Sea Level Pressure  
Sea Level Pressure 29.50 in    
Wind  
Wind Speed 3 mph ()    
Max Wind Speed 9 mph    
Max Gust Speed -    
Visibility 6.7 miles    
Events Rain , Snow    
Averages and records for this station are not official NWS values.
T = Trace of Precipitation, MM = Missing Value Source: Averaged Metar Reports

Daily Weather History Graph

Daily Weather History Graph

Search for Another Location

Airport:

Trip Planner

Search our weather history database for the weather conditions in past years. The results will help you decide how hot, cold, wet, or windy it might be!

Date:

Astronomy

Jan. 21, 2013 Rise Set
Actual Time 8:10 AM CET 5:10 PM CET
Civil Twilight 7:35 AM CET 5:45 PM CET
Nautical Twilight 6:56 AM CET 6:23 PM CET
Astronomical Twilight 6:19 AM CET 7:00 PM CET
Moon 12:38 PM CET (1/21) 3:23 AM CET (1/21)
Length of Visible Light 10h 10m
Length of Day
9h 00m
Waxing Gibbous, 73% of the Moon is Illuminated
Jan 21
Waxing Gibbous
Jan 27
Full
Feb 3
Last Quarter
Feb 10
New
Feb 17
First Quarter

Hourly Weather History & Observations

Time (CET) Temp. Windchill Dew Point Humidity Pressure Visibility Wind Dir Wind Speed Gust Speed Precip Events Conditions
12:00 AM 31 °F - 30 °F 96% 29.47 in 1 mi Calm Calm - - Snow Light Snow
1:00 AM 33 °F - 32 °F 95% 29.48 in 6 mi SSW 4.5 mph - - Rain Light Drizzle
2:00 AM 33 °F - 30 °F 86% 29.48 in 6 mi South 8.9 mph - - Rain Light Drizzle
3:00 AM 32 °F - 30 °F 90% 29.49 in 3 mi SSW 6.7 mph - - Snow Snow Grains
4:00 AM 33 °F - 29 °F 81% 29.50 in 4 mi SSW 6.7 mph - - Rain Light Rain
5:00 AM 31 °F - 30 °F 93% 29.51 in 1 mi South 4.5 mph - - Snow Light Snow
6:00 AM 31 °F - 30 °F 95% 29.52 in 2 mi SSW 4.5 mph - - Snow Light Snow
7:00 AM 31 °F - 30 °F 94% 29.52 in 2 mi SSW 6.7 mph - - Snow Light Snow
7:50 AM 32.0 °F 27.5 °F 32.0 °F 100% 29.47 in - South 4.6 mph - N/A Snow Light Snow
8:00 AM 31 °F - 29 °F 92% 29.53 in 3 mi South 4.5 mph - - Snow Light Snow
8:20 AM 32.0 °F 28.7 °F 30.2 °F 93% 29.47 in 4.3 mi South 3.5 mph - N/A Snow Light Snow
8:50 AM 32.0 °F 28.7 °F 30.2 °F 93% 29.50 in 5.6 mi SSE 3.5 mph - N/A   Mostly Cloudy
9:00 AM 31 °F - 29 °F 92% 29.54 in 6 mi SSE 4.5 mph - - Snow Light Snow
9:20 AM 32.0 °F 28.7 °F 30.2 °F 93% 29.47 in 6.2 mi SSE 3.5 mph - N/A   Mostly Cloudy
9:50 AM 32.0 °F - 30.2 °F 93% 29.50 in 6.2 mi South 2.3 mph - N/A   Mostly Cloudy
10:00 AM 33 °F - 30 °F 82% 29.54 in 16 mi SSE 2.2 mph - -   Partly Cloudy
10:20 AM 33.8 °F - 30.2 °F 87% 29.50 in 6.2 mi SSE 1.2 mph - N/A   Mostly Cloudy
10:50 AM 33.8 °F - 30.2 °F 87% 29.50 in 6.2 mi South 1.2 mph - N/A   Mostly Cloudy
11:00 AM 34 °F - 30 °F 80% 29.54 in 16 mi Calm Calm - -   Mostly Cloudy
11:20 AM 33.8 °F - 28.4 °F 81% 29.47 in 6.2 mi SE 2.3 mph - N/A   Mostly Cloudy
11:50 AM 33.8 °F - 28.4 °F 81% 29.47 in 6.2 mi SSW 2.3 mph - N/A   Mostly Cloudy
12:00 PM 35 °F - 30 °F 75% 29.53 in 16 mi South 2.2 mph - -   Mostly Cloudy
12:20 PM 33.8 °F - 30.2 °F 87% 29.47 in 6.2 mi South 1.2 mph - N/A   Mostly Cloudy
12:50 PM 35.6 °F - 28.4 °F 75% 29.47 in 6.2 mi SW 2.3 mph - N/A   Mostly Cloudy
1:00 PM 36 °F - 29 °F 69% 29.52 in 16 mi SE 2.2 mph - -   Partly Cloudy
1:20 PM 35.6 °F - 28.4 °F 75% 29.47 in 6.2 mi ESE 2.3 mph - N/A   Mostly Cloudy
1:50 PM 35.6 °F - 30.2 °F 81% 29.47 in 6.2 mi SSE 1.2 mph - N/A   Mostly Cloudy
2:00 PM 36 °F - 30 °F 73% 29.51 in 16 mi SSE 2.2 mph - -   Mostly Cloudy
2:20 PM 35.6 °F - 28.4 °F 75% 29.47 in 6.2 mi ESE 1.2 mph - N/A   Mostly Cloudy
2:50 PM 35.6 °F - 30.2 °F 81% 29.47 in 6.2 mi West 2.3 mph - N/A   Mostly Cloudy
3:00 PM 35 °F - 30 °F 74% 29.50 in 19 mi SW 4.5 mph - -   Mostly Cloudy
3:20 PM 33.8 °F - 30.2 °F 87% 29.47 in 6.2 mi WSW 2.3 mph - N/A Snow Light Snow
4:00 PM 35 °F - 30 °F 77% 29.50 in 9 mi West 2.2 mph - - Snow Light Snow
6:00 PM 33 °F - 31 °F 88% 29.51 in 6 mi NE 2.2 mph - - Snow Light Snow
7:00 PM 33 °F - 31 °F 90% 29.51 in 6 mi NNE 2.2 mph - -   Partly Cloudy
8:00 PM 32 °F - 31 °F 95% 29.52 in 4 mi NE 2.2 mph - - Snow Light Snow
9:00 PM 33 °F - 32 °F 92% 29.53 in 3 mi NNE 2.2 mph - - Snow Light Snow
10:00 PM 33 °F - 31 °F 92% 29.54 in 1 mi North 2.2 mph - - Rain Rain
11:00 PM 32 °F - 31 °F 95% 29.54 in 1 mi NE 2.2 mph - - Rain Rain